TimeCST,TemperatureF,Dew PointF,Humidity,Sea Level PressureIn,VisibilityMPH,Wind Direction,Wind SpeedMPH,Gust SpeedMPH,PrecipitationIn,Events,Conditions,WindDirDegrees,DateUTC
12:15 AM,20.8,15.3,79,30.10,10.0,SSW,5.8,-,N/A,,Clear,210,2014-01-18 06:15:00
12:35 AM,20.5,14.9,79,30.10,10.0,SSW,5.8,-,N/A,,Clear,210,2014-01-18 06:35:00
12:55 AM,20.3,14.9,80,30.10,10.0,SSW,5.8,-,N/A,,Clear,200,2014-01-18 06:55:00
1:15 AM,20.3,14.7,79,30.09,10.0,SSW,5.8,-,N/A,,Clear,210,2014-01-18 07:15:00
1:35 AM,19.9,14.9,81,30.09,10.0,SW,6.9,-,N/A,,Clear,220,2014-01-18 07:35:00
1:55 AM,19.9,14.9,81,30.10,10.0,SSW,6.9,-,N/A,,Clear,210,2014-01-18 07:55:00
2:15 AM,19.8,14.7,81,30.09,10.0,SSW,6.9,-,N/A,,Clear,210,2014-01-18 08:15:00
2:35 AM,19.4,14.7,82,30.09,10.0,SSW,6.9,-,N/A,,Clear,200,2014-01-18 08:35:00
2:55 AM,19.8,14.7,81,30.08,10.0,SSW,6.9,-,N/A,,Clear,200,2014-01-18 08:55:00
3:15 AM,19.8,14.7,81,30.08,10.0,SSW,8.1,-,N/A,,Clear,210,2014-01-18 09:15:00
3:35 AM,19.9,14.5,80,30.07,10.0,SW,6.9,-,N/A,,Clear,220,2014-01-18 09:35:00
3:55 AM,19.8,14.7,81,30.07,10.0,SW,6.9,-,N/A,,Clear,220,2014-01-18 09:55:00
4:15 AM,19.8,14.5,80,30.07,10.0,SW,5.8,-,N/A,,Clear,230,2014-01-18 10:15:00
4:35 AM,19.4,14.9,83,30.08,10.0,SW,6.9,-,N/A,,Clear,230,2014-01-18 10:35:00
4:55 AM,19.4,14.7,82,30.07,10.0,SW,5.8,-,N/A,,Clear,220,2014-01-18 10:55:00
5:15 AM,19.0,14.9,84,30.07,10.0,South,5.8,-,N/A,,Clear,180,2014-01-18 11:15:00
5:35 AM,19.2,15.4,85,30.06,10.0,South,5.8,-,N/A,,Clear,170,2014-01-18 11:35:00
5:55 AM,18.5,14.9,86,30.06,10.0,South,5.8,-,N/A,,Clear,190,2014-01-18 11:55:00
6:15 AM,18.9,15.4,87,30.05,10.0,South,6.9,-,N/A,,Scattered Clouds,190,2014-01-18 12:15:00
6:35 AM,20.3,16.3,85,30.03,10.0,South,8.1,-,N/A,,Overcast,170,2014-01-18 12:35:00
6:55 AM,20.8,16.9,85,30.03,10.0,South,8.1,-,N/A,,Overcast,180,2014-01-18 12:55:00
7:15 AM,21.9,18.0,85,30.03,10.0,South,6.9,-,N/A,,Overcast,180,2014-01-18 13:15:00
7:35 AM,22.8,18.3,83,30.02,10.0,South,10.4,-,N/A,,Overcast,170,2014-01-18 13:35:00
7:55 AM,23.5,18.7,82,30.01,10.0,South,10.4,-,N/A,,Overcast,170,2014-01-18 13:55:00
8:15 AM,24.4,19.2,81,30.01,10.0,South,9.2,-,N/A,,Overcast,170,2014-01-18 14:15:00
8:35 AM,25.5,19.0,76,29.99,10.0,SSE,11.5,-,N/A,,Overcast,160,2014-01-18 14:35:00
8:55 AM,26.6,19.9,76,29.99,10.0,South,13.8,-,N/A,,Overcast,170,2014-01-18 14:55:00
9:15 AM,27.1,20.1,75,29.98,10.0,SSE,12.7,-,N/A,,Overcast,160,2014-01-18 15:15:00
9:35 AM,27.5,20.3,74,29.97,10.0,SSE,15.0,-,N/A,,Mostly Cloudy,160,2014-01-18 15:35:00
9:55 AM,28.2,20.8,74,29.96,10.0,SSE,15.0,-,N/A,,Overcast,160,2014-01-18 15:55:00
10:15 AM,29.3,20.3,69,29.93,10.0,SSE,18.4,-,N/A,,Mostly Cloudy,160,2014-01-18 16:15:00
10:35 AM,30.0,20.3,67,29.91,10.0,SSE,18.4,-,N/A,,Overcast,150,2014-01-18 16:35:00
10:55 AM,30.9,19.8,63,29.89,10.0,SSE,18.4,-,N/A,,Overcast,150,2014-01-18 16:55:00
11:15 AM,32.0,19.0,59,29.86,4.0,SSE,18.4,24.2,N/A,,Haze,150,2014-01-18 17:15:00
11:35 AM,32.7,18.7,56,29.81,2.5,SSE,20.7,27.6,N/A,,Haze,160,2014-01-18 17:35:00
11:55 AM,33.1,18.5,55,29.78,1.0,SSE,24.2,-,N/A,,Haze,160,2014-01-18 17:55:00
12:15 PM,34.0,18.7,54,29.76,3.0,SSE,23.0,28.8,N/A,,Haze,160,2014-01-18 18:15:00
12:35 PM,35.1,19.0,52,29.75,2.5,SSE,19.6,-,N/A,,Haze,160,2014-01-18 18:35:00
12:55 PM,36.5,19.0,49,29.75,10.0,South,17.3,24.2,N/A,,Clear,180,2014-01-18 18:55:00
1:15 PM,37.0,19.9,50,29.73,10.0,South,17.3,-,N/A,,Clear,180,2014-01-18 19:15:00
1:35 PM,37.4,20.5,51,29.73,10.0,South,17.3,-,N/A,,Clear,190,2014-01-18 19:35:00
1:55 PM,37.9,21.0,51,29.72,10.0,South,15.0,-,N/A,,Clear,180,2014-01-18 19:55:00
2:15 PM,38.3,21.6,51,29.73,10.0,South,12.7,-,N/A,,Scattered Clouds,190,2014-01-18 20:15:00
2:35 PM,38.8,21.2,49,29.73,10.0,South,10.4,-,N/A,,Scattered Clouds,190,2014-01-18 20:35:00
2:55 PM,39.0,21.6,50,29.74,10.0,SSW,8.1,-,N/A,,Mostly Cloudy,210,2014-01-18 20:55:00
3:15 PM,39.7,24.6,55,29.76,5.0,SW,25.3,36.8,N/A,,Unknown,230,2014-01-18 21:15:00
3:35 PM,37.0,31.1,79,29.77,3.0,WSW,16.1,25.3,N/A,Snow,Light Snow,240,2014-01-18 21:35:00
3:55 PM,36.9,32.0,83,29.77,10.0,SW,12.7,-,N/A,Snow,Light Snow,220,2014-01-18 21:55:00
4:15 PM,36.9,32.0,83,29.76,10.0,SSW,8.1,-,N/A,,Mostly Cloudy,200,2014-01-18 22:15:00
4:35 PM,37.4,31.6,80,29.77,10.0,South,6.9,-,N/A,,Mostly Cloudy,190,2014-01-18 22:35:00
4:55 PM,37.0,31.1,79,29.77,10.0,South,6.9,-,N/A,,Scattered Clouds,190,2014-01-18 22:55:00
5:15 PM,36.9,31.1,80,29.78,10.0,SSW,6.9,-,N/A,,Mostly Cloudy,210,2014-01-18 23:15:00
5:35 PM,37.4,30.6,76,29.78,10.0,SW,5.8,-,N/A,,Scattered Clouds,230,2014-01-18 23:35:00
6:00 PM,37.8,30.2,74,29.79,10.0,SSW,5.8,-,N/A,,Scattered Clouds,210,2014-01-19 00:00:00
6:15 PM,37.6,30.0,74,29.79,10.0,SSW,6.9,-,N/A,,Scattered Clouds,200,2014-01-19 00:15:00
6:35 PM,36.5,29.1,75,29.79,10.0,SSW,3.5,-,N/A,,Scattered Clouds,200,2014-01-19 00:35:00
6:55 PM,35.1,30.2,82,29.79,10.0,South,5.8,-,N/A,,Scattered Clouds,180,2014-01-19 00:55:00
7:15 PM,36.5,30.2,78,29.78,10.0,SSW,8.1,-,N/A,,Scattered Clouds,210,2014-01-19 01:15:00
7:35 PM,37.9,29.7,72,29.79,10.0,SSW,6.9,-,N/A,,Mostly Cloudy,210,2014-01-19 01:35:00
7:55 PM,39.6,29.5,67,29.79,10.0,SW,8.1,-,N/A,,Scattered Clouds,230,2014-01-19 01:55:00
8:15 PM,39.4,30.4,70,29.80,10.0,SW,10.4,-,N/A,,Clear,220,2014-01-19 02:15:00
8:35 PM,39.6,33.1,78,29.80,10.0,WSW,12.7,-,N/A,Rain,Light Rain,250,2014-01-19 02:35:00
8:55 PM,38.5,34.3,85,29.81,10.0,West,9.2,-,N/A,,Drizzle,270,2014-01-19 02:55:00
9:15 PM,38.3,35.2,89,29.82,10.0,West,11.5,16.1,N/A,Rain,Light Rain,260,2014-01-19 03:15:00
9:35 PM,38.3,35.6,90,29.82,10.0,WSW,12.7,19.6,N/A,,Light Drizzle,250,2014-01-19 03:35:00
9:55 PM,37.9,35.2,90,29.82,10.0,West,13.8,17.3,N/A,,Light Drizzle,260,2014-01-19 03:55:00
10:15 PM,38.3,35.4,89,29.83,10.0,West,15.0,20.7,N/A,,Overcast,270,2014-01-19 04:15:00
10:35 PM,38.5,35.1,87,29.84,10.0,West,17.3,25.3,N/A,,Overcast,270,2014-01-19 04:35:00
10:55 PM,37.8,34.9,89,29.84,10.0,West,16.1,19.6,N/A,,Overcast,280,2014-01-19 04:55:00
11:15 PM,37.0,35.1,93,29.85,4.0,West,18.4,-,N/A,,Overcast,280,2014-01-19 05:15:00
11:35 PM,36.5,35.6,97,29.86,7.0,West,15.0,23.0,N/A,,Overcast,270,2014-01-19 05:35:00
11:55 PM,36.5,35.6,97,29.86,10.0,West,18.4,24.2,N/A,,Overcast,270,2014-01-19 05:55:00